Change the Weather History Date:

Monday, April 29, 2013

  Actual Average Record
Temperature  
Mean Temperature 61 °F 59 °F  
Max Temperature 70 °F 71 °F 89 °F (1970)
Min Temperature 51 °F 47 °F 28 °F (1967)
Degree Days  
Heating Degree Days 4 7  
Month to date heating degree days 283 295  
Since 1 July heating degree days 3934 4067  
Cooling Degree Days 0 0  
Month to date cooling degree days 5 0  
Year to date cooling degree days 5 1  
Growing Degree Days 10 (Base 50)    
Moisture  
Dew Point 53 °F    
Average Humidity 74    
Maximum Humidity 100    
Minimum Humidity 47    
Precipitation  
Precipitation 0.02 in 0.11 in 1.51 in (1963)
Month to date precipitation 5.88 3.22  
Year to date precipitation 21.34 14.48  
Snow  
Snow 0.00 in 0.00 in 0.10 in (1874)
Month to date snowfall 0.0 0.7  
Since 1 July snowfall 0.5 9.9  
Snow Depth 0.00 in    
Sea Level Pressure  
Sea Level Pressure 30.01 in    
Wind  
Wind Speed 3 mph (SSE)    
Max Wind Speed 13 mph    
Max Gust Speed 17 mph    
Visibility 10 miles    
Events Rain    
T = Trace of Precipitation, MM = Missing Value Source: NWS Daily Summary

Daily Weather History Graph

Daily Weather History Graph

Search for Another Location

Airport or City:

Trip Planner

Search our weather history database for the weather conditions in past years. The results will help you decide how hot, cold, wet, or windy it might be!

Date:

Astronomy

Apr. 29, 2013 Rise Set
Actual Time 6:40 AM EDT 8:14 PM EDT
Civil Twilight 6:13 AM EDT 8:42 PM EDT
Nautical Twilight 5:40 AM EDT 9:14 PM EDT
Astronomical Twilight 5:06 AM EDT 9:49 PM EDT
Moon No Moon Rise 10:03 AM EDT (4/29)
Length of Visible Light 14h 28m
Length of Day
13h 34m
Waning Gibbous, 80% of the Moon is Illuminated
Apr 29
Waning Gibbous
May 2
Last Quarter
May 9
New
May 18
First Quarter
May 25
Full

Hourly Weather History & Observations

Time (EDT) Temp. Dew Point Humidity Pressure Visibility Wind Dir Wind Speed Gust Speed Precip Events Conditions
12:54 AM 51.1 °F 51.1 °F 100% 30.06 in 10.0 mi Calm Calm - 0.02 in Rain Light Rain
1:28 AM 51.8 °F 51.8 °F 100% 30.08 in 10.0 mi Calm Calm - 0.00 in Rain Light Rain
1:43 AM 51.8 °F 51.8 °F 100% 30.08 in 10.0 mi Calm Calm - 0.00 in Rain Light Rain
1:54 AM 51.1 °F 51.1 °F 100% 30.06 in 10.0 mi South 3.5 mph - 0.01 in Rain Light Rain
2:54 AM 51.1 °F 50.0 °F 96% 30.03 in 10.0 mi Calm Calm - 0.00 in Rain Light Rain
3:54 AM 51.1 °F 50.0 °F 96% 30.02 in 10.0 mi South 4.6 mph - 0.01 in Rain Light Rain
4:54 AM 51.1 °F 50.0 °F 96% 30.01 in 10.0 mi SSE 4.6 mph - 0.00 in   Overcast
5:54 AM 51.1 °F 50.0 °F 96% 30.01 in 10.0 mi Calm Calm - N/A   Overcast
6:11 AM 51.8 °F 50.0 °F 94% 30.04 in 10.0 mi Calm Calm - N/A   Overcast
6:26 AM 51.8 °F 51.8 °F 100% 30.05 in 10.0 mi Calm Calm - N/A   Overcast
6:54 AM 52.0 °F 51.1 °F 97% 30.03 in 10.0 mi Calm Calm - 0.00 in Rain Light Rain
7:54 AM 53.1 °F 52.0 °F 96% 30.03 in 10.0 mi Calm Calm - N/A   Mostly Cloudy
8:27 AM 55.4 °F 51.8 °F 88% 30.06 in 10.0 mi Calm Calm - N/A   Partly Cloudy
8:54 AM 54.0 °F 52.0 °F 93% 30.03 in 10.0 mi NW 3.5 mph - N/A   Mostly Cloudy
9:54 AM 55.9 °F 53.1 °F 90% 30.03 in 10.0 mi NNW 3.5 mph - N/A   Overcast
10:44 AM 57.2 °F 53.6 °F 88% 30.06 in 10.0 mi Calm Calm - N/A   Scattered Clouds
10:54 AM 59.0 °F 55.0 °F 87% 30.03 in 10.0 mi Calm Calm - N/A   Clear
11:54 AM 66.0 °F 53.1 °F 63% 30.01 in 10.0 mi Variable 3.5 mph - N/A   Mostly Cloudy
12:54 PM 70.0 °F 53.1 °F 55% 29.99 in 10.0 mi North 4.6 mph - N/A   Partly Cloudy
1:54 PM 69.1 °F 48.9 °F 49% 29.97 in 10.0 mi North 4.6 mph - N/A   Mostly Cloudy
2:54 PM 66.0 °F 55.0 °F 68% 29.96 in 10.0 mi SE 6.9 mph - N/A   Overcast
3:54 PM 66.9 °F 55.0 °F 66% 29.94 in 10.0 mi SSE 8.1 mph 16.1 mph N/A   Mostly Cloudy
4:54 PM 66.9 °F 55.0 °F 66% 29.93 in 10.0 mi Variable 6.9 mph - N/A   Scattered Clouds
5:54 PM 66.9 °F 54.0 °F 63% 29.93 in 10.0 mi SSE 8.1 mph - N/A   Mostly Cloudy
6:54 PM 66.9 °F 54.0 °F 63% 29.93 in 10.0 mi Variable 4.6 mph - N/A   Clear
7:54 PM 64.9 °F 54.0 °F 68% 29.95 in 10.0 mi SSE 4.6 mph - N/A   Scattered Clouds
8:54 PM 62.1 °F 55.0 °F 78% 29.98 in 10.0 mi SE 3.5 mph - N/A   Scattered Clouds
9:54 PM 61.0 °F 55.0 °F 81% 30.00 in 10.0 mi Calm Calm - N/A   Overcast
10:54 PM 60.1 °F 55.0 °F 83% 30.00 in 10.0 mi Calm Calm - N/A   Overcast
11:54 PM 59.0 °F 54.0 °F 83% 29.98 in 10.0 mi Calm Calm - N/A   Partly Cloudy